QPF
0.00 0.00 0.00 0.00 0.00 0.00 0.00 0.00 0.00 0.00 0.00 0.00 0.00 0.00 0.00 0.00 0.00 0.00 0.00 0.00 0.00 0.00 0.00 0.00 0.01 0.00 0.00 0.00 0.00 0.01 0.03 0.01 0.00 0.00 0.00 0.00 0.00 0.00 0.00 0.00 0.00 0.00 0.00 0.00 0.00
0.00 0.00 0.00 0.00 0.00 0.00 0.00 0.00 0.00 0.00 0.00 0.00 0.00 0.00 0.00 0.00 0.00 0.00 0.00 0.00 0.00 0.00 0.00 0.00 0.00 0.00 0.00 0.00 0.00 0.01 0.00 0.00 0.00 0.00 0.00 0.00 0.00 0.00 0.00 0.00 0.00 0.00 0.00 0.00 0.00
0.00 0.00 0.00 0.00 0.00 0.00 0.00 0.00 0.00 0.00 0.00 0.00 0.00 0.00 0.00 0.00 0.00 0.00 0.00 0.00 0.00 0.00 0.00 0.00 0.00 0.00 0.00 0.00 0.00 0.00 0.00 0.00 0.00 0.00 0.00 0.00 0.00 0.00 0.00 0.00 0.00 0.00 0.00 0.00 0.00
0.00 0.00 0.00 0.00 0.00 0.00 0.00 0.00 0.00 0.00 0.00 0.00 0.00 0.00 0.00 0.00 0.00 0.00 0.00 0.00 0.00 0.00 0.00 0.00 0.00 0.00 0.00 0.00 0.00 0.00 0.00 0.00 0.00 0.00 0.00 0.00 0.00 0.00 0.00 0.00 0.00 0.00 0.00 0.00 0.00
0.00 0.00 0.00 0.00 0.00 0.00 0.00 0.00 0.00 0.00 0.00 0.00 0.00 0.00 0.00 0.00 0.00 0.00 0.00 0.00 0.00 0.00 0.00 0.00 0.00 0.00 0.00 0.00 0.00 0.00 0.00 0.00 0.00 0.00 0.00 0.00 0.00 0.00 0.00 0.00 0.00 0.00 0.00 0.00 0.00
0.00 0.00 0.00 0.00 0.00 0.00 0.00 0.00 0.00 0.00 0.00 0.00 0.00 0.00 0.00 0.00 0.00 0.00 0.00 0.00 0.00 0.00 0.00 0.00 0.00 0.00 0.00 0.00 0.00 0.00 0.00 0.00 0.00 0.00 0.00 0.00 0.00 0.00 0.00 0.00 0.00 0.00 0.00 0.00 0.00
0.00 0.00 0.00 0.00 0.00 0.00 0.00 0.00 0.00 0.00 0.00 0.00 0.00 0.00 0.00 0.00 0.00 0.00 0.00 0.00 0.00 0.00 0.00 0.00 0.00 0.00 0.00 0.00 0.00 0.00 0.00 0.00 0.00 0.00 0.00 0.00 0.00 0.00 0.00 0.00 0.00 0.00 0.00 0.00 0.00
0.00 0.00 0.00 0.00 0.00 0.00 0.00 0.00 0.00 0.00 0.00 0.00 0.00 0.00 0.00 0.00 0.00 0.00 0.00 0.00 0.00 0.00 0.00 0.00 0.00 0.00 0.00 0.00 0.00 0.00 0.00 0.00 0.00 0.00 0.00 0.00 0.00 0.00 0.00 0.00 0.00 0.00 0.00 0.00 0.00
0.00 0.00 0.00 0.00 0.00 0.00 0.00 0.00 0.00 0.00 0.00 0.00 0.00 0.00 0.00 0.00 0.00 0.00 0.00 0.00 0.00 0.00 0.00 0.00 0.00 0.00 0.00 0.00 0.00 0.00 0.00 0.00 0.01 0.00 0.00 0.00 0.00 0.00 0.00 0.00 0.00 0.00 0.00 0.00 0.00
0.00 0.00 0.00 0.00 0.00 0.00 0.00 0.00 0.00 0.00 0.00 0.00 0.00 0.00 0.00 0.00 0.00 0.00 0.00 0.00 0.00 0.00 0.00 0.00 0.00 0.00 0.00 0.00 0.00 0.00 0.00 0.01 0.05 0.01 0.01 0.01 0.00 0.00 0.00 0.00 0.00 0.00 0.00 0.00 0.00
0.00 0.00 0.00 0.00 0.00 0.00 0.00 0.00 0.00 0.00 0.00 0.00 0.00 0.00 0.00 0.00 0.00 0.00 0.00 0.00 0.00 0.00 0.00 0.00 0.00 0.00 0.00 0.00 0.00 0.00 0.01 0.02 0.06 0.02 0.02 0.03 0.01 0.00 0.00 0.00 0.00 0.00 0.00 0.00 0.00
0.00 0.00 0.00 0.00 0.00 0.00 0.00 0.00 0.00 0.00 0.00 0.00 0.00 0.00 0.00 0.00 0.00 0.00 0.00 0.00 0.00 0.00 0.00 0.00 0.00 0.00 0.00 0.00 0.00 0.00 0.00 0.01 0.03 0.03 0.01 0.01 0.01 0.00 0.00 0.00 0.00 0.00 0.00 0.00 0.00
0.00 0.00 0.00 0.00 0.00 0.00 0.00 0.00 0.00 0.00 0.00 0.00 0.00 0.00 0.00 0.00 0.00 0.00 0.00 0.00 0.00 0.00 0.00 0.00 0.00 0.00 0.00 0.00 0.00 0.00 0.00 0.00 0.01 0.00 0.00 0.02 0.01 0.00 0.00 0.00 0.00 0.00 0.00 0.00 0.00
0.00 0.00 0.00 0.00 0.00 0.00 0.00 0.00 0.00 0.00 0.00 0.00 0.00 0.00 0.00 0.00 0.00 0.00 0.00 0.00 0.00 0.00 0.00 0.00 0.00 0.00 0.00 0.00 0.00 0.00 0.00 0.00 0.01 0.00 0.00 0.01 0.00 0.00 0.00 0.00 0.00 0.00 0.00 0.00 0.00
0.00 0.00 0.00 0.00 0.00 0.00 0.00 0.00 0.00 0.00 0.00 0.00 0.00 0.00 0.00 0.00 0.00 0.00 0.00 0.00 0.00 0.00 0.00 0.00 0.00 0.00 0.00 0.00 0.00 0.00 0.00 0.00 0.00 0.00 0.00 0.00 0.00 0.00 0.00 0.00 0.00 0.00 0.00 0.00 0.00
0.00 0.00 0.00 0.00 0.00 0.00 0.00 0.00 0.00 0.00 0.00 0.00 0.00 0.00 0.00 0.00 0.00 0.00 0.00 0.00 0.00 0.00 0.00 0.00 0.00 0.00 0.00 0.00 0.00 0.00 0.00 0.00 0.00 0.00 0.00 0.00 0.00 0.00 0.00 0.00 0.00 0.00 0.00 0.00 0.00
0.00 0.00 0.00 0.00 0.00 0.00 0.00 0.00 0.00 0.00 0.00 0.00 0.00 0.00 0.00 0.00 0.00 0.00 0.00 0.00 0.00 0.00 0.00 0.00 0.00 0.00 0.00 0.00 0.00 0.00 0.00 0.00 0.00 0.00 0.00 0.00 0.00 0.00 0.00 0.00 0.00 0.00 0.00 0.00 0.00
0.00 0.00 0.00 0.00 0.00 0.00 0.00 0.00 0.00 0.00 0.00 0.00 0.00 0.00 0.00 0.00 0.00 0.00 0.00 0.00 0.00 0.00 0.00 0.00 0.00 0.00 0.00 0.00 0.00 0.00 0.00 0.00 0.00 0.00 0.00 0.00 0.00 0.00 0.00 0.00 0.00 0.00 0.00 0.00 0.00
0.00 0.00 0.00 0.00 0.00 0.00 0.00 0.00 0.00 0.00 0.00 0.00 0.00 0.00 0.00 0.00 0.00 0.00 0.00 0.00 0.00 0.00 0.00 0.00 0.00 0.00 0.00 0.00 0.00 0.00 0.00 0.00 0.00 0.00 0.00 0.00 0.00 0.00 0.00 0.00 0.00 0.00 0.00 0.00 0.00
0.00 0.00 0.00 0.00 0.00 0.00 0.00 0.00 0.00 0.00 0.00 0.00 0.00 0.00 0.00 0.00 0.00 0.00 0.00 0.00 0.00 0.00 0.00 0.00 0.00 0.00 0.00 0.00 0.00 0.00 0.00 0.00 0.00 0.00 0.00 0.00 0.00 0.00 0.00 0.00 0.00 0.00 0.00 0.00 0.00
0.00 0.00 0.00 0.00 0.00 0.00 0.00 0.00 0.00 0.00 0.00 0.00 0.00 0.00 0.00 0.00 0.00 0.00 0.00 0.00 0.00 0.00 0.00 0.00 0.00 0.00 0.00 0.00 0.00 0.00 0.00 0.00 0.00 0.00 0.00 0.00 0.00 0.00 0.00 0.00 0.00 0.00 0.00 0.00 0.00
0.00 0.00 0.00 0.00 0.00 0.00 0.00 0.00 0.00 0.00 0.00 0.00 0.00 0.00 0.00 0.00 0.00 0.00 0.00 0.00 0.00 0.00 0.00 0.00 0.00 0.00 0.00 0.00 0.00 0.00 0.00 0.00 0.00 0.00 0.00 0.00 0.00 0.00 0.00 0.00 0.00 0.00 0.00 0.00 0.00
0.00 0.00 0.00 0.00 0.00 0.00 0.00 0.00 0.00 0.00 0.00 0.00 0.00 0.00 0.00 0.00 0.00 0.00 0.00 0.00 0.00 0.00 0.00 0.00 0.00 0.00 0.00 0.00 0.00 0.00 0.00 0.00 0.00 0.00 0.00 0.00 0.00 0.00 0.00 0.00 0.00 0.00 0.00 0.00 0.00
0.00 0.00 0.00 0.00 0.00 0.00 0.00 0.00 0.00 0.00 0.00 0.00 0.00 0.00 0.00 0.00 0.00 0.00 0.00 0.00 0.00 0.00 0.00 0.00 0.00 0.00 0.00 0.00 0.00 0.00 0.00 0.00 0.00 0.00 0.00 0.00 0.00 0.00 0.00 0.00 0.00 0.00 0.00 0.00 0.00
0.00 0.00 0.00 0.00 0.00 0.00 0.00 0.00 0.00 0.00 0.00 0.00 0.00 0.00 0.00 0.00 0.00 0.00 0.00 0.00 0.00 0.00 0.00 0.00 0.00 0.00 0.00 0.00 0.00 0.00 0.00 0.00 0.00 0.00 0.00 0.00 0.00 0.00 0.00 0.00 0.00 0.00 0.00 0.00 0.00
0.00 0.00 0.00 0.00 0.00 0.00 0.00 0.00 0.00 0.00 0.00 0.00 0.00 0.00 0.00 0.00 0.00 0.00 0.00 0.00 0.00 0.00 0.00 0.00 0.00 0.00 0.00 0.00 0.00 0.00 0.00 0.00 0.00 0.00 0.00 0.00 0.00 0.00 0.00 0.00 0.00 0.00 0.00 0.00 0.00
0.00 0.00 0.00 0.00 0.00 0.00 0.00 0.00 0.00 0.00 0.00 0.00 0.00 0.00 0.00 0.00 0.00 0.00 0.00 0.00 0.00 0.00 0.00 0.00 0.00 0.00 0.00 0.00 0.00 0.00 0.00 0.00 0.00 0.00 0.00 0.00 0.00 0.00 0.00 0.00 0.00 0.00 0.00 0.00 0.00
MSLP
1014.63 1014.33 1014.08 1013.83 1013.60 1013.32 1012.97 1012.66 1012.26 1011.90 1011.73 1011.47 1011.36 1011.27 1010.62 1010.87 1010.22 1010.31 1008.92 1006.72 1007.27 1008.20 1008.61 1008.74 1008.85 1009.08 1009.62 1010.04 1010.51 1010.47 1010.63 1009.60 1008.62 1008.41 1007.90 1007.81 1008.18 1008.42 1008.40 1008.91 1009.13 1009.38 1009.93 1010.74 1011.79
1014.61 1014.36 1014.03 1013.70 1013.50 1013.22 1012.94 1012.57 1012.19 1011.74 1011.57 1011.45 1011.16 1011.19 1010.53 1010.77 1010.24 1008.74 1006.12 1005.89 1006.76 1007.75 1008.33 1008.90 1009.09 1009.65 1009.98 1009.70 1009.84 1009.88 1009.60 1008.15 1006.89 1006.74 1007.14 1007.35 1007.72 1008.13 1008.72 1009.32 1009.40 1009.76 1010.28 1011.23 1012.15
1014.64 1014.27 1014.08 1013.70 1013.35 1013.14 1012.94 1012.41 1012.05 1011.67 1011.37 1011.32 1011.06 1010.98 1010.35 1010.63 1009.56 1006.68 1005.24 1005.60 1006.82 1007.72 1007.75 1008.29 1008.18 1008.54 1009.25 1009.10 1008.77 1008.46 1007.73 1006.30 1005.72 1005.69 1006.27 1006.92 1007.50 1007.78 1008.59 1009.30 1009.21 1009.33 1010.39 1011.40 1012.29
1014.58 1014.26 1013.86 1013.61 1013.32 1012.99 1012.88 1012.37 1011.94 1011.55 1011.24 1011.04 1010.94 1010.81 1010.31 1010.13 1008.35 1005.49 1005.11 1005.53 1006.68 1007.45 1007.68 1007.76 1008.49 1008.80 1008.63 1008.16 1007.62 1007.36 1006.16 1005.55 1005.32 1005.29 1006.15 1006.62 1006.98 1007.66 1008.00 1008.05 1008.51 1009.17 1009.98 1011.21 1012.12
1014.59 1014.27 1013.96 1013.53 1013.14 1012.95 1012.72 1012.28 1011.92 1011.45 1011.09 1010.85 1010.72 1010.64 1010.35 1009.07 1006.80 1004.95 1005.28 1005.77 1006.35 1006.85 1007.01 1007.52 1007.74 1007.33 1007.06 1007.05 1006.89 1006.81 1005.77 1005.09 1004.79 1005.14 1005.64 1006.12 1006.59 1007.24 1007.91 1008.15 1008.85 1009.63 1010.09 1010.91 1011.75
1014.57 1014.21 1013.86 1013.55 1013.11 1012.68 1012.43 1012.15 1011.70 1011.38 1011.04 1010.77 1010.58 1010.44 1010.06 1008.09 1005.26 1005.06 1005.55 1006.08 1006.06 1006.30 1006.18 1006.38 1006.55 1006.52 1006.55 1006.35 1006.35 1006.29 1005.82 1005.28 1005.50 1005.48 1005.85 1006.34 1007.01 1007.30 1008.07 1008.31 1009.09 1009.72 1010.19 1010.63 1011.28
1014.51 1014.18 1013.87 1013.36 1012.93 1012.52 1012.13 1011.85 1011.53 1011.19 1010.98 1010.74 1010.61 1010.30 1009.28 1006.60 1005.21 1005.46 1005.69 1005.78 1005.65 1005.57 1005.90 1006.16 1006.30 1006.66 1006.50 1006.26 1006.50 1006.17 1006.02 1005.76 1005.97 1006.07 1006.19 1006.51 1007.61 1007.57 1007.99 1008.50 1009.19 1009.80 1010.15 1010.58 1010.80
1014.49 1014.07 1013.71 1013.28 1012.74 1012.32 1011.85 1011.50 1011.30 1010.97 1010.81 1010.71 1010.59 1010.25 1008.19 1005.59 1005.38 1005.87 1005.97 1005.58 1005.28 1005.68 1006.25 1006.38 1006.44 1006.78 1007.09 1006.97 1006.80 1006.98 1006.79 1006.89 1006.46 1006.12 1006.16 1006.50 1007.53 1007.87 1008.24 1008.72 1009.35 1009.75 1010.09 1010.36 1010.53
1014.42 1013.94 1013.53 1013.23 1012.67 1012.08 1011.61 1011.20 1010.83 1010.69 1010.66 1010.62 1010.59 1009.90 1007.20 1005.76 1005.79 1005.39 1005.47 1005.48 1005.17 1005.45 1006.00 1006.28 1006.81 1007.20 1007.58 1007.99 1007.79 1008.02 1007.90 1007.86 1007.17 1006.40 1006.44 1006.97 1007.76 1008.09 1008.44 1008.81 1009.19 1009.57 1009.82 1009.98 1010.15
1014.23 1013.72 1013.23 1012.91 1012.62 1012.08 1011.36 1010.81 1010.60 1010.75 1010.67 1010.44 1010.07 1009.60 1006.51 1005.01 1004.54 1004.71 1005.01 1005.16 1005.47 1005.53 1005.77 1006.21 1007.09 1007.75 1008.31 1008.51 1008.42 1008.47 1008.43 1008.43 1008.01 1007.40 1007.45 1007.43 1007.54 1007.95 1008.33 1008.64 1008.81 1009.15 1009.45 1009.62 1009.63
1013.90 1013.44 1013.05 1012.65 1012.30 1012.01 1011.31 1010.85 1010.96 1010.51 1009.94 1008.55 1008.05 1007.24 1005.67 1004.48 1003.77 1004.21 1004.56 1005.24 1005.68 1005.74 1006.22 1006.26 1007.24 1007.39 1007.31 1007.27 1007.75 1008.13 1008.35 1008.44 1008.45 1007.79 1007.98 1008.26 1007.74 1007.66 1008.00 1008.64 1008.85 1008.95 1008.92 1009.03 1008.99
1013.84 1013.32 1012.78 1012.40 1012.12 1011.95 1011.94 1010.66 1008.89 1008.37 1008.22 1006.99 1006.83 1006.30 1005.36 1004.87 1004.52 1003.82 1004.05 1005.10 1005.48 1005.77 1006.02 1006.48 1006.41 1005.74 1005.93 1006.68 1007.09 1007.29 1008.15 1008.67 1008.13 1007.52 1008.44 1008.44 1008.49 1008.11 1007.95 1007.65 1007.82 1008.07 1008.35 1008.51 1008.76
1013.70 1013.04 1012.48 1012.03 1011.59 1011.55 1010.98 1009.21 1007.77 1007.66 1008.02 1006.27 1005.67 1005.09 1004.46 1004.60 1004.16 1003.56 1003.83 1004.31 1005.02 1005.66 1005.87 1006.10 1004.85 1005.01 1005.16 1005.71 1006.52 1006.66 1007.06 1007.98 1008.00 1008.02 1008.34 1008.59 1008.44 1008.04 1007.75 1007.74 1007.73 1007.76 1007.67 1007.85 1008.04
1013.42 1012.81 1012.20 1011.63 1011.59 1010.87 1009.89 1008.30 1007.74 1007.78 1007.68 1005.95 1004.94 1003.55 1003.68 1003.67 1003.60 1002.87 1003.22 1003.84 1004.72 1005.05 1005.54 1005.71 1004.72 1004.61 1004.51 1004.92 1005.66 1006.04 1005.39 1006.72 1006.79 1007.83 1008.50 1008.35 1008.46 1007.69 1007.41 1007.24 1007.22 1007.06 1007.16 1007.21 1007.52
1012.96 1012.52 1012.15 1012.07 1011.68 1010.31 1008.37 1007.96 1007.46 1007.57 1007.15 1004.82 1004.00 1002.70 1002.76 1003.42 1003.25 1002.85 1002.84 1003.44 1004.22 1004.67 1005.29 1004.88 1004.53 1004.35 1004.10 1003.88 1004.42 1004.65 1004.36 1005.64 1006.52 1007.70 1008.40 1008.81 1008.68 1006.99 1006.81 1006.75 1006.38 1006.12 1006.01 1006.26 1006.60
1012.75 1012.22 1011.89 1011.87 1011.67 1008.56 1007.63 1007.59 1007.49 1008.04 1006.16 1004.07 1003.17 1002.88 1003.24 1003.34 1003.20 1002.92 1003.01 1003.35 1003.76 1004.75 1005.15 1004.81 1004.31 1004.00 1003.39 1003.24 1003.72 1003.88 1004.54 1006.19 1007.51 1008.67 1009.71 1008.00 1008.14 1006.63 1006.09 1004.35 1004.90 1005.12 1005.18 1005.28 1005.81
1011.84 1011.41 1011.60 1010.73 1009.41 1007.96 1007.48 1007.52 1008.34 1007.98 1005.40 1004.14 1003.39 1003.29 1003.41 1003.71 1003.57 1003.42 1003.69 1003.92 1004.60 1005.28 1005.91 1005.07 1004.23 1003.41 1002.92 1003.13 1003.57 1004.25 1005.75 1007.17 1008.70 1009.64 1008.98 1007.82 1008.01 1005.69 1004.14 1003.61 1003.62 1004.08 1004.23 1004.43 1005.11
1010.83 1010.04 1009.87 1009.32 1008.44 1008.11 1007.64 1008.34 1008.46 1006.54 1005.10 1003.62 1003.37 1003.62 1003.94 1004.00 1003.87 1003.80 1004.18 1004.68 1004.86 1005.57 1006.67 1006.24 1004.71 1003.25 1002.54 1002.77 1003.40 1004.52 1005.68 1007.45 1008.81 1009.85 1009.03 1008.13 1007.05 1004.81 1003.77 1002.96 1003.38 1003.89 1004.24 1004.48 1004.85
1009.98 1009.66 1009.65 1007.57 1008.11 1008.60 1008.50 1009.17 1007.70 1006.33 1004.81 1003.95 1003.62 1004.04 1004.29 1004.05 1004.18 1004.38 1004.59 1004.70 1004.70 1005.28 1006.11 1006.10 1005.06 1003.07 1002.45 1002.35 1002.79 1004.64 1005.80 1006.76 1008.17 1009.49 1009.44 1007.90 1006.18 1004.61 1004.07 1003.73 1003.67 1004.15 1004.34 1004.50 1004.64
1010.78 1009.82 1008.29 1006.81 1007.33 1008.10 1008.73 1008.79 1007.44 1005.82 1004.56 1003.79 1003.66 1003.70 1004.20 1004.11 1004.43 1004.68 1004.66 1003.75 1004.24 1004.46 1004.62 1005.41 1005.26 1003.59 1002.50 1002.32 1003.18 1003.87 1005.22 1006.88 1008.49 1009.56 1009.59 1008.18 1006.82 1006.04 1005.02 1004.49 1004.37 1004.61 1004.76 1004.42 1004.41
1010.69 1009.55 1007.27 1006.84 1007.09 1008.37 1009.39 1008.64 1006.90 1005.30 1004.56 1004.12 1003.74 1003.66 1003.80 1004.01 1004.15 1004.53 1004.19 1003.42 1003.37 1004.10 1004.75 1005.49 1005.70 1004.52 1003.65 1003.66 1004.03 1004.58 1005.60 1007.15 1008.55 1009.24 1009.76 1009.15 1007.60 1006.26 1005.57 1005.49 1005.54 1005.69 1005.83 1005.46 1004.62
1011.16 1009.64 1007.45 1007.62 1008.02 1009.32 1009.12 1007.81 1006.43 1005.24 1004.60 1004.35 1003.86 1003.77 1003.85 1004.09 1004.31 1004.43 1004.23 1003.63 1003.22 1003.52 1004.70 1004.85 1005.94 1005.97 1005.00 1004.36 1004.38 1004.71 1005.89 1007.00 1008.92 1009.59 1009.67 1009.12 1007.69 1006.49 1005.81 1006.02 1006.42 1007.25 1007.14 1006.83 1005.64
1012.00 1010.45 1007.90 1007.78 1008.82 1009.47 1008.64 1007.56 1006.33 1005.27 1004.50 1004.33 1004.04 1003.87 1003.97 1004.63 1005.08 1004.91 1004.40 1003.88 1003.73 1003.73 1004.24 1004.77 1006.09 1006.58 1005.88 1005.71 1005.18 1005.41 1006.04 1006.83 1007.95 1008.86 1009.21 1009.28 1008.20 1007.61 1006.74 1007.29 1008.19 1008.35 1008.20 1007.36 1007.11
1012.33 1011.39 1009.68 1008.92 1009.23 1009.08 1008.69 1007.61 1006.39 1004.85 1004.46 1004.25 1004.34 1004.52 1004.63 1005.60 1005.73 1005.88 1005.48 1004.81 1004.57 1004.53 1004.62 1004.63 1006.68 1006.79 1006.65 1006.32 1006.18 1006.26 1006.42 1006.71 1007.65 1008.96 1009.25 1008.82 1008.45 1008.34 1008.37 1008.75 1009.18 1008.89 1008.62 1008.28 1008.56
1012.84 1012.88 1012.13 1010.77 1010.23 1009.66 1008.98 1007.54 1006.53 1005.55 1004.77 1004.76 1005.58 1005.72 1005.44 1006.48 1006.78 1006.71 1006.43 1006.10 1005.37 1005.33 1005.29 1005.65 1007.14 1007.36 1007.42 1006.86 1006.48 1006.75 1007.08 1007.27 1007.82 1008.51 1009.00 1008.27 1008.31 1008.67 1009.30 1009.86 1010.31 1009.94 1009.46 1009.42 1009.76
1013.96 1013.82 1012.73 1011.85 1010.96 1010.05 1009.07 1007.59 1006.77 1006.23 1006.06 1005.92 1006.20 1006.47 1006.05 1006.84 1007.08 1007.34 1007.31 1007.13 1007.15 1006.59 1006.80 1007.17 1008.27 1008.19 1008.37 1007.65 1006.95 1007.42 1007.88 1008.43 1008.69 1008.85 1008.68 1008.96 1009.38 1009.39 1010.01 1010.79 1011.24 1011.07 1010.99 1010.90 1011.10
1014.58 1014.07 1013.69 1012.72 1011.72 1010.75 1009.93 1008.37 1007.29 1006.63 1006.65 1006.30 1006.62 1006.77 1006.98 1007.16 1007.17 1007.23 1007.47 1007.54 1007.58 1007.84 1008.13 1008.47 1008.99 1009.57 1009.56 1008.72 1008.04 1008.59 1008.76 1009.04 1009.90 1010.36 1010.16 1010.01 1010.64 1010.70 1010.78 1011.57 1012.05 1012.22 1012.19 1012.15 1011.89
Thickness
5780 5783 5785 5786 5788 5789 5792 5794 5797 5801 5803 5806 5806 5806 5812 5812 5817 5816 5818 5840 5836 5830 5827 5824 5818 5814 5809 5798 5796 5796 5763 5759 5772 5773 5787 5803 5796 5810 5818 5806 5812 5817 5809 5806 5806
5781 5784 5786 5789 5791 5792 5794 5797 5800 5804 5805 5807 5810 5809 5815 5815 5819 5824 5852 5853 5842 5834 5826 5812 5804 5804 5794 5801 5797 5783 5765 5780 5805 5807 5796 5806 5807 5806 5801 5800 5804 5809 5814 5810 5805
5782 5785 5787 5790 5793 5794 5796 5800 5803 5806 5808 5809 5812 5813 5818 5820 5823 5838 5864 5859 5842 5835 5832 5823 5822 5813 5799 5806 5806 5800 5785 5815 5820 5824 5819 5812 5810 5816 5802 5792 5806 5810 5807 5807 5804
5782 5785 5789 5791 5794 5796 5797 5801 5805 5808 5811 5812 5813 5815 5819 5825 5806 5858 5868 5863 5848 5838 5829 5820 5811 5800 5798 5802 5818 5802 5820 5824 5826 5831 5822 5814 5821 5811 5815 5815 5825 5823 5821 5811 5805
5781 5785 5788 5791 5795 5797 5799 5803 5806 5810 5813 5815 5816 5817 5820 5823 5832 5870 5869 5864 5856 5846 5833 5821 5813 5817 5815 5817 5819 5807 5823 5831 5836 5833 5830 5830 5822 5818 5814 5825 5826 5821 5820 5814 5809
5780 5784 5787 5790 5795 5799 5802 5804 5809 5811 5814 5815 5817 5819 5820 5809 5866 5869 5867 5862 5859 5851 5846 5842 5834 5838 5831 5828 5822 5825 5824 5831 5829 5831 5831 5819 5818 5822 5817 5827 5820 5817 5815 5816 5814
5780 5783 5786 5791 5795 5800 5804 5807 5810 5813 5815 5816 5817 5821 5820 5827 5864 5865 5864 5862 5864 5860 5845 5849 5849 5837 5836 5825 5831 5829 5817 5824 5823 5828 5822 5826 5803 5807 5822 5823 5816 5815 5817 5818 5819
5780 5783 5787 5792 5797 5801 5806 5810 5812 5815 5816 5816 5817 5818 5816 5861 5863 5858 5859 5859 5869 5864 5854 5853 5854 5840 5829 5832 5823 5810 5809 5789 5818 5826 5828 5824 5785 5813 5824 5817 5812 5815 5816 5818 5820
5779 5784 5788 5792 5797 5803 5808 5812 5815 5817 5817 5817 5816 5817 5817 5858 5846 5858 5861 5851 5859 5861 5856 5857 5845 5828 5823 5797 5792 5791 5780 5783 5798 5827 5825 5817 5794 5815 5825 5820 5814 5814 5817 5820 5822
5778 5784 5789 5793 5797 5803 5809 5814 5816 5815 5816 5818 5819 5809 5836 5839 5857 5858 5862 5858 5846 5849 5843 5836 5824 5805 5795 5782 5768 5782 5780 5786 5782 5809 5811 5807 5808 5817 5822 5821 5819 5817 5818 5821 5825
5778 5784 5789 5793 5797 5801 5808 5812 5807 5807 5813 5817 5821 5823 5837 5856 5868 5856 5858 5846 5841 5835 5808 5828 5802 5788 5801 5805 5807 5799 5786 5786 5790 5812 5807 5792 5805 5816 5823 5818 5817 5817 5819 5822 5828
5776 5782 5788 5793 5797 5799 5800 5809 5820 5825 5806 5831 5829 5829 5842 5850 5831 5848 5860 5828 5822 5804 5820 5807 5794 5822 5829 5816 5812 5808 5789 5776 5793 5813 5801 5799 5796 5814 5822 5827 5828 5827 5826 5827 5829
5775 5782 5788 5793 5798 5799 5805 5818 5834 5832 5800 5822 5831 5832 5838 5843 5829 5836 5848 5835 5819 5805 5810 5800 5822 5837 5829 5815 5802 5804 5797 5791 5783 5805 5803 5797 5796 5808 5822 5826 5830 5834 5839 5838 5834
5775 5781 5788 5794 5798 5802 5809 5826 5830 5828 5775 5802 5822 5837 5844 5845 5828 5858 5856 5840 5821 5807 5811 5805 5832 5827 5822 5815 5810 5788 5826 5817 5817 5795 5771 5806 5766 5801 5813 5821 5826 5833 5837 5839 5838
5778 5782 5786 5788 5792 5805 5823 5827 5831 5820 5748 5819 5823 5860 5848 5829 5836 5841 5860 5841 5815 5816 5815 5807 5821 5819 5816 5826 5826 5813 5838 5825 5819 5800 5795 5790 5783 5804 5818 5816 5828 5835 5843 5848 5848
5777 5783 5787 5789 5789 5816 5827 5828 5822 5765 5749 5810 5828 5822 5822 5828 5832 5842 5841 5848 5840 5820 5817 5814 5836 5834 5830 5843 5841 5844 5835 5807 5792 5779 5757 5796 5791 5797 5808 5838 5839 5841 5848 5854 5854
5782 5787 5787 5795 5809 5821 5826 5816 5762 5741 5807 5806 5809 5818 5814 5811 5819 5825 5819 5812 5796 5787 5782 5805 5820 5837 5847 5831 5837 5825 5797 5758 5766 5753 5766 5794 5788 5813 5845 5853 5856 5849 5856 5861 5860
5787 5796 5799 5806 5813 5817 5818 5785 5751 5782 5791 5825 5816 5808 5798 5808 5812 5817 5808 5795 5814 5799 5772 5774 5777 5829 5849 5834 5821 5818 5805 5761 5759 5749 5767 5787 5783 5822 5853 5866 5869 5864 5859 5859 5860
5790 5795 5796 5815 5811 5809 5794 5749 5761 5779 5810 5810 5814 5796 5795 5809 5811 5808 5801 5799 5811 5805 5782 5770 5784 5837 5844 5848 5842 5817 5800 5813 5778 5767 5758 5780 5814 5840 5849 5857 5860 5859 5860 5860 5863
5776 5788 5798 5816 5812 5803 5773 5756 5775 5798 5811 5814 5797 5804 5784 5797 5796 5796 5793 5820 5817 5822 5825 5808 5786 5829 5845 5854 5841 5831 5825 5792 5770 5765 5767 5775 5797 5797 5829 5838 5848 5854 5852 5859 5865
5773 5781 5802 5808 5807 5781 5753 5757 5781 5806 5812 5800 5800 5801 5800 5800 5800 5792 5802 5823 5831 5825 5823 5808 5797 5807 5830 5817 5811 5811 5796 5786 5779 5766 5752 5750 5778 5822 5823 5836 5841 5841 5845 5850 5862
5757 5764 5792 5793 5765 5745 5753 5771 5792 5798 5807 5801 5806 5806 5804 5807 5804 5802 5803 5815 5838 5828 5806 5817 5789 5781 5802 5828 5828 5823 5806 5787 5759 5773 5756 5757 5773 5818 5829 5832 5833 5829 5834 5840 5855
5741 5746 5778 5780 5739 5740 5756 5773 5786 5789 5794 5798 5798 5806 5808 5800 5791 5795 5806 5827 5829 5829 5812 5815 5780 5762 5781 5795 5813 5804 5808 5795 5776 5766 5762 5758 5769 5816 5823 5819 5817 5816 5823 5835 5840
5732 5736 5746 5753 5745 5750 5754 5758 5768 5796 5791 5796 5796 5800 5798 5780 5783 5785 5786 5811 5817 5817 5819 5817 5776 5778 5760 5781 5792 5794 5801 5801 5784 5763 5765 5765 5783 5801 5803 5802 5804 5811 5818 5823 5822
5718 5717 5722 5725 5733 5739 5746 5758 5760 5767 5785 5781 5774 5773 5786 5766 5769 5770 5781 5787 5807 5806 5810 5804 5776 5784 5781 5792 5797 5795 5789 5794 5793 5789 5778 5789 5791 5798 5794 5792 5792 5800 5807 5809 5807
5701 5702 5709 5711 5717 5728 5731 5750 5754 5760 5759 5763 5756 5763 5772 5760 5768 5764 5768 5773 5774 5792 5790 5785 5764 5778 5769 5777 5789 5775 5777 5774 5774 5776 5793 5787 5780 5792 5789 5786 5782 5786 5789 5789 5788
5688 5694 5697 5703 5707 5717 5718 5734 5746 5753 5755 5763 5759 5756 5755 5765 5770 5774 5771 5771 5774 5775 5769 5766 5756 5750 5748 5758 5772 5750 5759 5759 5757 5760 5764 5768 5766 5778 5778 5774 5770 5771 5774 5775 5779